Location: *
(43.4667°N, 11.6833°E)
Time: 15:26:11
(UTC+00:00)

Cosmos 1867 - Pass Details

Date: 19 July 2019
Orbit: 774 x 801 km, 65.0° (Epoch: 20 August)

Event Time Altitude Azimuth Distance (km) Brightness Sun altitude
Exits shadow 22:13:14 39° 227° (SW) 1,185 4.2 -24.0°
Maximum altitude 22:15:19 76° 304° (NW) 826 3.6 -24.1°
Drops below altitude 10° 22:20:49 10° 31° (NNE) 2,383 6.6 -24.4°
Sets 22:23:16 0° 33° (NNE) 3,318 7.4 -24.5°
